[Iaude] MPEC N39: 2024 NM [a=1.88,e=0.47,i=20.1,H=21.9]
    mpec at cfa.harvard.edu 
    mpec at cfa.harvard.edu
       
    Fri Jul  5 01:38:06 EDT 2024
    
    
  
M.P.E.C. 2024-N39                                  Issued 2024 July 5, 05:36 UT
     The Minor Planet Electronic Circulars contain information on unusual
         minor planets, routine data on comets and natural satellites,
         and occasional editorial announcements.  They are published
    on behalf of Division F of the International Astronomical Union by the
          Minor Planet Center, Smithsonian Astrophysical Observatory,
                          Cambridge, MA 02138, U.S.A.
			  
             Prepared using the Tamkin Foundation Computer Network
                              MPC at CFA.HARVARD.EDU
            URL https://www.minorplanetcenter.net/    ISSN 1523-6714
                                    2024 NM                                     
Observations:
     K24N00M* C2024 07 02.30588817 59 26.124+19 50 56.20         21.74wXEN039F51
     K24N00M  C2024 07 02.31945017 59 24.715+19 50 49.64         21.96wXEN039F51
     K24N00M  C2024 07 02.34665317 59 21.882+19 50 36.49         22.06wXEN039F51
     K24N00M  C2024 07 02.42869517 59 13.246+19 49 55.49         21.25GVEN039F52
     K24N00M  C2024 07 02.42952317 59 13.159+19 49 55.08         20.98GVEN039F52
     K24N00M 6C2024 07 03.96197 17 56 43.49 +19 35 18.7          22.1 GVEN039Z84
     K24N00M 6C2024 07 03.98611 17 56 40.90 +19 35 03.6          21.7 GVEN039Z84
     K24N00M 6C2024 07 04.01028 17 56 38.32 +19 34 48.1          22.5 GVEN039Z84
     K24N00M KC2024 07 05.19627017 54 39.25 +19 21 19.6          21.8 GVEN039H21
     K24N00M KC2024 07 05.20480217 54 38.33 +19 21 13.7          22.1 GVEN039H21
     K24N00M KC2024 07 05.21314417 54 37.40 +19 21 07.1          21.9 GVEN039H21
Observer details:
F51 Pan-STARRS 1, Haleakala.  Observers J. Herman, T. Lowe, P. Minguez, A.
    Schultz, I. Smith.  Measurers K. Chambers, T. de Boer, J. Fairlamb, H.
    Gao, M. Huber, C.-C. Lin, E. Magnier, Y. Ramanjooloo, R. Wainscoat, R.
    Weryk.  1.8-m Ritchey-Chretien + CCD.
F52 Pan-STARRS 2, Haleakala.  Observers J. Herman, T. Lowe, P. Minguez, A.
    Schultz, I. Smith.  Measurers K. Chambers, T. de Boer, J. Fairlamb, H.
    Gao, M. Huber, C.-C. Lin, E. Magnier, Y. Ramanjooloo, R. Wainscoat, R.
    Weryk.  1.8-m Ritchey-Chretien + CCD.
H21 Astronomical Research Observatory, Westfield.  Observer R. Holmes.
    Measurers T. Linder, R. Holmes, L. Horn.  0.81-m f/4.0 astrograph + CCD.
Z84 Calar Alto-Schmidt.  Observers M. Micheli, R. Kresken.  Measurers R.
    Kresken, M. Micheli, F. Ocana, L. Conversi.  0.8-m f/3 Schmidt + CCD.
Orbital elements:
2024 NM                                                  Earth MOID = 0.0552 AU
Epoch 2024 Mar. 31.0 TT = JDT 2460400.5                 MPC                     
M 293.41961              (2000.0)            P               Q                  
n   0.38147740     Peri.  221.41115     +0.96772738     +0.04768114             
a   1.8828838      Node   133.96663     -0.00915976     +0.98794308             
e   0.4728599      Incl.   20.10851     -0.25183290     +0.14729219             
P   2.58           H   21.97          G   0.15           U   9                  
Residuals in seconds of arc
240702 F51  0.1+  0.1+    240702 F52  0.2-  0.0     240705 H21  0.1-  0.0
240702 F51  0.0   0.0     240703 Z84  0.0   0.1-    240705 H21  0.1+  0.3+
240702 F51  0.0   0.0     240703 Z84  0.0   0.0     240705 H21  0.1-  0.2-
240702 F52  0.2-  0.0     240704 Z84  0.2+  0.1-
Ephemeris:
2024 NM                  a,e,i = 1.88, 0.47, 20                  q = 0.9925
Date    TT    R. A. (2000) Decl.     Delta      r    Elong.  Phase     V
2024 06 05    18 27 35.2 +18 06 33   0.6373  1.5235   133.2    29.0    23.2
...
2024 06 20    18 16 06.3 +20 11 48   0.5039  1.4227   136.1    29.7    22.5
...
2024 06 28    18 05 57.9 +20 15 41   0.4411  1.3691   136.1    31.0    22.2
...
2024 07 04    17 56 39.7 +19 35 02   0.3977  1.3294   135.4    32.5    22.0
2024 07 05    17 54 59.2 +19 23 50   0.3907  1.3228   135.2    32.8    21.9
2024 07 06    17 53 16.9 +19 11 13   0.3839  1.3163   135.0    33.1    21.9
...
2024 07 12    17 42 28.5 +17 23 24   0.3445  1.2774   133.2    35.4    21.6
...
2024 07 20    17 27 01.3 +13 18 26   0.2968  1.2271   129.7    39.6    21.3
...
2024 08 04    16 56 53.0 -01 20 01   0.2240  1.1400   118.9    51.2    20.9
A. U. Tomatic                (C) Copyright 2024 MPC           M.P.E.C. 2024-N39
    
    
More information about the Iaude
mailing list